Tracking 22458 objects as of 2-Mar-2021
HD Live streaming from Space Station
objects crossing your sky now

ATLAS CENTAUR R/B

Track ATLAS CENTAUR R/B now!


NORAD ID: 8621
Int'l Code: 1976-010B
Perigee: 613.9 km
Apogee: 36,496.4 km
Inclination: 21.8 °
Period: 652.7 minutes
Semi major axis: 24926 km
RCS: 16.4818 m2 (large)
Launch date: January 29, 1976
Source: United States (US)
Launch site: AIR FORCE EASTERN TEST RANGE (AFETR)

Note: This is a ROCKET BODY
aabbcc
Your satellite tracking list
Your tracking list is empty




NASA's NSSDC Master Catalog

Two Line Element Set (TLE):
1  8621U 76010B   21060.68518480 -.00000146  00000-0 -11301-3 0  9992
2  8621  21.7698  47.9913 7197754 150.3519   0.7639  2.20607661246006
Source of the keplerian elements: AFSPC